Location: *
(35.1500°N, 76.6700°W)
Time: 02:44:10
(UTC+00:00)

Cosmos 1242 Rocket - Pass Details

Date: 13 October 2019
Orbit: 449 x 488 km, 81.2° (Epoch: 13 November)

Event Time Altitude Azimuth Distance (km) Brightness Sun altitude
Rises 23:36:26 0° 2° (N) 2,564 6.2 -13.5°
Reaches altitude 10° 23:38:43 10° 13° (NNE) 1,680 5.2 -13.9°
Maximum altitude 23:42:03 31° 78° (ENE) 869 3.3 -14.6°
Enters shadow 23:43:05 27° 110° (ESE) 976 3.5 -14.8°
